Погода в Лобакине

Россия / Волгоградская область     48°47′42″N   42°50′36″E
темп.,
°C
ветер,
м/с
пор.,
м/с
влажн.,
%
обл.,
%
осадки,
мм/ч
давл.,
гПа
погр.,
м
15 апреля, чт
чт1500:00+12юв227391 0.0 101614
03:00+10ю118498 0.0 101610
06:00+10юз2385100 0.0 101638
09:00+14зюз3370100 0.0 1016388
12:00+17з3355100 0.0 10151201
15:00+18з334985 0.0 10151466
18:00+17з23512 0.0 101695
21:00+13зсз33635 0.0 101632
16 апреля, пт
пт1600:00+11зсз487274 0.0 1017132
03:00+10зсз35797 0.0 101784
06:00+9сз33825 0.0 101854
09:00+14з2365100 0.0 1019526
12:00+18зюз34472 0.0 10181413
15:00+19зюз344049 0.0 10182150
18:00+18зсз1148100 0.0 101713
21:00+14зюз7964100 0.0 1019422
17 апреля, сб
сб1700:00+11з4692100 2.6 1019181
03:00+11ю3789100 4.1 1018647
06:00+10зюз479348 0.2 1018374
09:00+10з578099 0.3 1021527
12:00+14зюз455099 0.1 10211820
15:00+15зюз354099 0.1 10202190
18:00+14зюз245264 0.0 1020158
21:00+10зсз115947 0.0 102110
18 апреля, вс
вс1800:00+9зюз22645 0.0 102118
03:00+7з11713 0.0 102010
06:00+7ю117342 0.0 102112
09:00+12ююз345471 0.0 1020558
12:00+15ююз3445100 0.0 10191558
15:00+16ю3341100 0.0 10181985
18:00+14юз2354100 0.0 101869
21:00+12зюз3461100 0.0 101999
19 апреля, пн
пн1900:00+10зсз2282100 1.0 101998
03:00+9св3591100 3.1 1018189
06:00+9всв3591100 0.9 1018277
09:00+10всв3581100 1.1 1018245
12:00+13всв446364 0.0 1017923
15:00+14всв4459100 0.0 10161313
18:00+13всв4568100 0.0 1016617
21:00+10всв3580100 0.0 1016121